Terminal Aerodrome Forecast
Issued by NWS

Home | Current Version | Previous Version | Text Only | Print | Product List | Glossary On
Versions: 1 2 3 4 5 6 7 8 9 10 11 12 13 14
000
FTUS45 KRIW 160539
TAFRKS
TAF
KRKS 160539Z 1606/1706 23012KT P6SM SCT120 BKN200 WS020/27030KT
     FM161300 24009KT P6SM VCSH SCT030 OVC060
     FM161700 28008KT 4SM -SN SCT015 OVC030
     FM162000 02007KT 2SM -SN SCT003 OVC012
     FM170200 04013KT 4SM -SN OVC015=

USA.gov is the U.S. government's official web portal to all federal, state and local government web resources and services.